This demonstration page uses our WeatherBlox Daily Observations layout. Learn more.

41.55636, -103.73856

Hourly Observations for January 2, 2018

Temp ( °F °C ) Dew Point ( °F °C ) Humidity (%) Winds ( mph kmh ) Pressure ( in mb ) Visibility ( mi km ) Precip ( " mm )
12:17 am 00:17 Cloudy -6 -21.1 -10 -23.3 83 83 NW 8 13 30.86 1045 7 11.265408 0 0
12:53 am 00:53 Cloudy with Mist and Fog -4 -20 -7 -21.7 86 86 NW 10 17 30.62 1037 6 9.656064 0 0
1:43 am 01:43 Partly Cloudy -7 -21.7 -11 -23.9 82 82 NW 13 20 30.86 1045 8 12.874752 0 0
1:53 am 01:53 Clear -7 -21.7 -10 -23.3 87 87 NW 13 20 30.62 1037 7 11.265408 0 0
2:53 am 02:53 Clear -1 -18.3 -12 -24.4 59 59 WNW 16 26 30.62 1037 7 11.265408 0 0
3:53 am 03:53 Clear -4 -20 -12 -24.4 68 68 NW 17 28 30.62 1037 7 11.265408 0 0
4:53 am 04:53 Clear 0 -17.8 -12 -24.4 57 57 NW 12 19 30.59 1036 8 12.874752 0 0
5:53 am 05:53 Clear -2 -18.9 -9 -22.8 72 72 NNW 9 15 30.62 1037 8 12.874752 0 0
6:53 am 06:53 Clear 0 -17.8 -10 -23.3 62 62 NW 10 17 30.62 1037 8 12.874752 0 0
7:53 am 07:53 Sunny 3 -16.1 -10 -23.3 54 54 NNW 8 13 30.59 1036 7 11.265408 0 0
8:53 am 08:53 Sunny 14 -10 -5 -20.6 42 42 NW 12 19 30.56 1035 7 11.265408 0 0
9:53 am 09:53 Sunny 16 -8.9 -3 -19.4 43 43 NW 14 22 30.56 1035 8 12.874752 0 0
10:53 am 10:53 Sunny 20 -6.7 -1 -18.3 40 40 WNW 10 17 30.53 1034 8 12.874752 0 0
11:53 am 11:53 Sunny 25 -3.9 2 -16.7 37 37 NW 9 15 30.5 1033 8 12.874752 0 0
12:53 pm 12:53 Sunny 28 -2.2 5 -15 37 37 NW 13 20 30.45 1031 9 14.484096 0 0
1:53 pm 13:53 Sunny 24 -4.4 8 -13.3 50 50 WNW 16 26 30.48 1032 10 16.09344 0 0
2:53 pm 14:53 Sunny 33 0.6 10 -12.2 38 38 NW 15 24 30.45 1031 10 16.09344 0 0
3:53 pm 15:53 Sunny 27 -2.8 11 -11.7 51 51 WNW 12 19 30.48 1032 10 16.09344 0 0
4:53 pm 16:53 Clear 26 -3.3 9 -12.8 48 48 NW 7 11 30.45 1031 10 16.09344 0 0
5:53 pm 17:53 Clear 21 -6.1 8 -13.3 57 57 NW 7 11 30.45 1031 10 16.09344 0 0
6:53 pm 18:53 Clear 26 -3.3 9 -12.8 48 48 WNW 9 15 30.45 1031 10 16.09344 0 0
7:53 pm 19:53 Clear 24 -4.4 7 -13.9 48 48 NW 9 15 30.45 1031 10 16.09344 0 0
8:53 pm 20:53 Clear 23 -5 8 -13.3 53 53 WNW 15 24 30.45 1031 10 16.09344 0 0
9:53 pm 21:53 Clear 24 -4.4 6 -14.4 46 46 NNW 6 9 30.42 1030 10 16.09344 0 0
10:53 pm 22:53 Clear 23 -5 7 -13.9 50 50 undefined N/A 30.42 1030 10 16.09344 0 0
11:53 pm 23:53 Clear 28 -2.2 6 -14.4 39 39 NW 12 19 30.42 1030 10 16.09344 0 0

Powered by AerisWeather